Date,TemperatureHighF,TemperatureAvgF,TemperatureLowF,DewpointHighF,DewpointAvgF,DewpointLowF,HumidityHigh,HumidityAvg,HumidityLow,PressureMaxIn,PressureMinIn,WindSpeedMaxMPH,WindSpeedAvgMPH,GustSpeedMaxMPH,PrecipitationSumIn
2013-3-1,38,33,29,25,22,18,71,63,50,29.90,29.73,6,2,21,0.00
2013-3-2,32,28,25,19,16,14,73,62,51,29.89,29.82,6,2,18,0.00
2013-3-3,34,28,24,16,13,10,66,55,43,29.95,29.84,7,3,21,0.00
2013-3-4,39,28,21,15,11,7,75,49,28,30.06,29.94,9,3,24,0.00
2013-3-5,51,35,21,28,17,9,88,54,20,30.05,29.73,7,2,21,0.11
2013-3-6,36,32,29,31,28,25,95,87,65,30.04,29.66,5,1,13,0.77
2013-3-7,41,36,33,26,24,22,73,61,49,30.19,30.03,7,2,20,0.00
2013-3-8,40,33,24,25,22,20,84,64,51,30.34,30.18,8,3,22,0.00
2013-3-9,55,33,17,29,21,14,90,68,22,30.40,30.24,3,0,7,0.00
2013-3-10,61,41,23,31,25,20,90,60,25,30.28,30.13,10,3,20,0.00
2013-3-11,57,51,33,44,29,11,81,47,18,30.12,29.77,14,7,27,0.00
2013-3-12,56,46,37,48,36,23,93,69,48,29.96,29.68,17,5,29,0.23
2013-3-13,42,33,25,27,20,12,87,61,33,30.07,29.88,12,4,24,0.00
2013-3-14,40,32,25,17,13,9,69,47,31,30.17,30.06,10,4,30,0.00
2013-3-15,55,39,22,31,22,13,81,54,33,30.09,29.78,12,3,28,0.00
2013-3-16,54,40,32,40,34,27,90,80,58,29.87,29.58,7,1,13,0.00
2013-3-17,36,34,31,32,26,20,91,73,58,30.21,29.87,6,1,10,0.00
2013-3-18,33,30,28,29,26,21,91,86,60,30.23,29.84,5,1,21,0.33
2013-3-19,52,39,30,34,20,1,94,55,15,29.93,29.73,21,5,40,0.00
2013-3-20,47,36,25,26,11,5,85,38,20,29.95,29.75,15,5,29,0.00
2013-3-21,30,25,21,25,11,3,83,54,36,29.90,29.77,11,3,24,0.00
2013-3-22,43,31,22,16,12,7,75,47,27,30.00,29.88,9,3,22,0.00
2013-3-23,50,32,16,24,16,12,88,57,22,30.03,29.92,10,2,20,0.00
2013-3-24,37,28,20,27,21,16,92,76,43,29.98,29.60,7,1,11,0.10
2013-3-25,40,32,28,32,29,27,94,88,68,29.68,29.49,5,0,9,0.32
2013-3-26,43,35,29,29,26,22,93,70,44,30.02,29.69,6,2,18,0.00
2013-3-27,41,35,29,28,24,20,75,62,49,30.12,30.01,7,3,21,0.00
2013-3-28,44,38,34,29,24,21,65,56,46,30.22,30.08,8,3,24,0.00
2013-3-29,52,41,32,30,25,17,81,56,26,30.24,30.13,8,2,22,0.00
2013-3-30,57,40,25,28,22,15,87,56,19,30.23,30.06,8,1,16,0.00
2013-3-31,46,38,30,44,34,23,94,87,73,30.06,29.72,6,0,10,0.10